Flag for Saudi Arabia Weather past 2 weeks in Turaif, Saudi Arabia

Now
50 °F

Partly cloudy.


Feels Like: 47 °F
Forecast: 42 / 56 °F
Wind: 7 mph from North

Location: Turaif

Current Time: Jan 29, 2015 at 3:59:00 AM

Latest Report: Jan 29, 2015 at 3:00 AM


Visibility: N/A

Pressure: 29.95 "Hg

Humidity: 67%

Dew point: 39 °F

Location of TuraifLocation

Historic Weather in Turaif — Graph

°F

Turaif temperature yesterday

Maximum temperature yesterday: 68 °F (at 2:00 PM)
Minimum temperature yesterday: 52 °F (at 4:00 AM)
Average temperature yesterday: 58 °F

Past Weeks' High & Low Weather Summary

 TemperatureHumidityPressure
High75 °F (Jan 25, 3:00 PM)100% (Jan 16, 3:00 AM)30.30 "Hg (Jan 16, 3:00 AM)
Low32 °F (Jan 19, 8:00 AM)14% (Jan 25, 3:00 PM)29.83 "Hg (Jan 28, 3:00 PM)
Average50 °F60%30.11 "Hg
* Reported Jan 14 2:00 AM — Jan 29 2:00 AM, Turaif, Weather by CustomWeather, © 2014

Note: Actual official high and low records may vary slightly from our data, if they occured in-between our weather recording intervals... More about our weather records

Advertising

Turaif weather history for previous 24 hours

 ConditionsComfort  
Time TempWeatherWind HumidityBarometerVisibility
2:00 AM
Jan 29
50 °FPartly cloudy.5 mph62%29.95 "HgN/A
1:00 AM52 °FPartly cloudy.7 mph58%29.95 "HgN/A
12:00 AM52 °FPartly cloudy.9 mph58%29.95 "HgN/A
11:00 PM
Jan 28
52 °FPartly cloudy.14 mph62%29.95 "HgN/A
10:00 PM54 °FPartly cloudy.14 mph63%29.95 "HgN/A
9:00 PM55 °FPartly cloudy.14 mph59%29.95 "HgN/A
8:00 PM55 °FPartly cloudy.21 mph55%29.95 "HgN/A
7:00 PM59 °FPartly cloudy.21 mph48%29.92 "HgN/A
6:00 PM61 °FScattered clouds.18 mph45%29.89 "HgN/A
5:00 PM64 °FScattered clouds.21 mph46%29.86 "HgN/A
4:00 PM66 °FBroken clouds.12 mph56%29.83 "HgN/A
3:00 PM68 °FBroken clouds.14 mph53%29.83 "HgN/A
2:00 PM68 °FScattered clouds.12 mph53%29.86 "HgN/A
1:00 PM66 °FScattered clouds.14 mph49%29.89 "HgN/A
12:00 PM64 °FScattered clouds.12 mph46%29.89 "HgN/A
11:00 AM59 °FBroken clouds.9 mph48%29.89 "HgN/A
10:00 AM57 °FMostly cloudy.12 mph44%29.89 "HgN/A
9:00 AM55 °FMostly cloudy.14 mph47%29.89 "HgN/A
8:00 AM55 °FMostly cloudy.9 mph47%29.92 "HgN/A
7:00 AM54 °FClear.12 mph47%29.92 "Hg10 mi
6:00 AM52 °FClear.12 mph50%29.89 "Hg10 mi
5:00 AM52 °FClear.12 mph50%29.89 "Hg10 mi
4:00 AM52 °FClear.14 mph47%29.92 "Hg10 mi
3:00 AM54 °FClear.12 mph44%29.95 "Hg10 mi
Weather by CustomWeather, © 2014

See weather overviewHow to use our weather pages